Location: Unspecified
(0.0000°N, 0.0000°E)
Time: 18:14:11
(UTC+00:00)

Hubble Space Telescope - Pass Details

Date: 20 January 2026
Orbit: 479 x 481 km, 28.5° (Epoch: 19 January)

Event Time Altitude Azimuth Distance (km) Brightness Sun altitude
Exits shadow 05:17:39 19° 273° (W) 1,195 1.9 -12.5°
Maximum altitude 05:19:59 41° 210° (SSW) 694 1.2 -12.0°
Drops below altitude 10° 05:23:34 10° 138° (SE) 1,641 4.3 -11.1°
Sets 05:25:51 0° 131° (SE) 2,520 5.7 -10.6°
